Regional Weather Roundup
Issued by NWS

Home | Current Version | Previous Version | Text Only | Print | Product List | Glossary On
Versions: 1 2 3 4 5 6 7 8 9 10 11 12 13 14 15 16 17 18 19 20 21 22 23 24 25 26 27 28 29 30 31 32 33 34 35 36 37 38 39 40 41 42 43 44 45 46 47 48 49 50
079
ASUS43 KMPX 251010
RWRMN
WEATHER ROUNDUP FOR MINNESOTA
NATIONAL WEATHER SERVICE TWIN CITIES/CHANHASSEN MN
400 AM CST SUN FEB 25 2018


NOTE: "FAIR" INDICATES FEW OR NO CLOUDS BELOW 12,000 FEET WITH NO
SIGNIFICANT WEATHER AND/OR OBSTRUCTIONS TO VISIBILITY. N/A MEANS
CURRENT SKY AND/OR WEATHER CONDITIONS ARE NOT AVAILABLE.

MNZ060>063-068>070-251100-
   Twin Cities Metro

CITY           SKY/WX    TMP DP  RH WIND       PRES   REMARKS
TWIN CITIES    CLOUDY    16  14  92 W17G25    29.56R WCI   0
ST PAUL        CLOUDY    18  14  84 W12G22    29.57R WCI   5
CRYSTAL        CLOUDY    17  13  84 W15G22    29.54R WCI   2
BLAINE         FAIR      19  18  93 W14       29.52R WCI   6
LAKEVILLE      CLOUDY    14  12  92 W14G21    29.58R WCI  -1
EDEN PRAIRIE   CLOUDY    16  12  84 W12G22    29.56R WCI   3
SOUTH ST PAUL  FAIR      18  15  88 W15G23    29.56R FOG     WCI   3
LAKE ELMO      CLOUDY    18  16  93 SW14G23   29.54R WCI   4
$$
MNZ001>005-007-008-013>017-022>024-027-028-251100-
   Northwest Minnesota

CITY           SKY/WX    TMP DP  RH WIND       PRES   REMARKS
BEMIDJI        CLOUDY    18  16  91 W12       29.40S WCI   5
HALLOCK        FLURRIES  18  16  93 CALM      29.47F
ROSEAU         LGT SNOW  19  16  86 W3        29.43S
WARROAD        LGT SNOW  19  16  86 W5        29.42F WCI  13
THIEF RVR FALL MIX PCPN  16  15  96 W7        29.47S WCI   6
CROOKSTON      FLURRIES  16  14  93 W6        29.49F WCI   7
FOSSTON        CLOUDY    16  16 100 W9        29.45F WCI   4
DETROIT LAKES  CLOUDY    18  16  93 W7        29.47F FOG     WCI   8
MOORHEAD       FAIR      12  10  92 W6        29.52F WCI   3
PARK RAPIDS    CLOUDY    19  15  84 W12       29.42S WCI   7
MAHNOMEN       FLURRIES  15  13  92 W8        29.46F WCI   3
$$
MNZ006-009>011-018-025>026-251100-
   North Central Minnesota

CITY           SKY/WX    TMP DP  RH WIND       PRES   REMARKS
BAUDETTE       LGT SNOW  21  19  92 NW8       29.36F FOG     WCI  11
FLAG ISLAND    MIX PCPN  19  18  93 N8        29.39F WCI   9
INTL FALLS     LGT SNOW  22  21  96 N5        29.32F FOG     WCI  16
WASKISH        LGT SNOW  19  19 100 W5        29.37S WCI  13
LONGVILLE      LGT SNOW  19  18  93 W8        29.39F WCI   9
GRAND RAPIDS   LGT SNOW  21  18  88 W9        29.36S FOG     WCI  11
CRANE LAKE     LGT SNOW  21  19  93 CALM      29.31F
ORR            LGT SNOW  19  18  93 NW5       29.27F WCI  13
COOK           LGT SNOW  21  19  93 W5        29.29F WCI  15
WALKER         CLOUDY    18  15  89 W10       29.39S WCI   6
$$
MNZ012-019>021-037-251100-
   Northeast Minnesota

CITY           SKY/WX    TMP DP  RH WIND       PRES   REMARKS
DULUTH         LGT SNOW  26  23  88 W21       29.28S FOG     WCI  12
ELY            LGT SNOW  21  21 100 CALM      29.24F
HIBBING        CLOUDY    21  19  92 W8        29.30R WCI  11
EVELETH        LGT SNOW  23  21  93 W5        29.29F WCI  17
DULUTH HARBOR  FLURRIES  28  27  93 SW14      29.32S WCI  17
TWO HARBORS    LGT SNOW  30  25  80 CALM      29.25F
SILVER BAY     MIX PCPN  28  28 100 CALM      29.24F
GRAND MARAIS     N/A     30  28  92 E15       29.25F WCI  19
G MARAIS ARPRT MIX PCPN  25  19  80 E7        29.19F WCI  17
$$
MNZ029>031-032-039>041-046>048-054>057-064-251100-
   West Central Minnesota

CITY           SKY/WX    TMP DP  RH WIND       PRES   REMARKS
FERGUS FALLS   CLOUDY    12  10  92 W7        29.53R WCI   2
WHEATON        CLEAR      9   7  92 W10       29.58R WCI  -6
MORRIS         CLEAR     10   7  85 W9        29.54S WCI  -2
ALEXANDRIA     CLOUDY    16  14  92 W14       29.50S WCI   2
ELBOW LAKE     CLOUDY    15  13  94 NW14      29.53S WCI   0
WADENA         CLOUDY    16  14  93 W10       29.46R WCI   3
GLENWOOD       FAIR      16  12  86 W12       29.51F WCI   3
APPLETON       CLEAR      9   7  92 W13       29.57S WCI  -7
BENSON         CLEAR      9   5  85 W9        29.57S WCI  -5
MADISON        CLEAR     16  10  79 W17       29.60R WCI   0
WILLMAR        CLOUDY    12  10  92 W15       29.58S WCI  -4
$$
MNZ033>034-036-042>043-049>051-058-059-251100-
   Central Minnesota

CITY           SKY/WX    TMP DP  RH WIND       PRES   REMARKS
ST CLOUD       CLOUDY    19  16  88 W20       29.50R WCI   3
SAUK CENTRE    CLOUDY    17  14  89 W14G21    29.51R WCI   3
PAYNESVILLE    CLOUDY    17  15  93 W14       29.52F WCI   2
AITKIN         LGT SNOW  18  16  93 W7        29.38F WCI   8
PINE RIVER     CLOUDY    18  16  93 W9        29.46S WCI   6
BRAINERD       MOCLDY    20  15  81 W15G23    29.43S WCI   6
STAPLES        CLOUDY    18  18 100 W17G26    29.46R WCI   2
LONG PRAIRIE   CLOUDY    18  16  93 SW15G23   29.50R WCI   3
LITTLE FALLS   CLOUDY    21  14  73 W13       29.48S WCI   9
LITCHFIELD     CLOUDY    16  12  86 W10G17    29.56R WCI   3
BUFFALO        CLOUDY    17  14  89 SW13G18   29.55S WCI   3
MAPLE LAKE     CLOUDY    18  16  93 W7G17     29.55R WCI   9
HUTCHINSON     CLOUDY    16  13  88 W15G22    29.59R WCI   1
$$
MNZ037-044-045-052-053-251100-
   East Central Minnesota

CITY           SKY/WX    TMP DP  RH WIND       PRES   REMARKS
PRINCETON      CLOUDY    21  18  86 W16       29.48R WCI   7
CAMBRIDGE        N/A     23  18  80 W12       29.48R WCI  12
RUSH CITY      FLURRIES  23  20  87 W17G25    29.46R WCI  10
MOOSE LAKE     LGT SNOW  25  21  86 W10G17    29.35R WCI  15
HINCKLEY       CLOUDY    25  23  93 W15       29.41R WCI  12
CLOQUET        CLOUDY    25  21  86 W15G24    29.31S WCI  12
MCGREGOR       CLOUDY    23  21  93 W7        29.37S WCI  15
$$
MNZ071>073-080-081-089-090-097-098-251100-
   Southwest Minnesota

CITY           SKY/WX    TMP DP  RH WIND       PRES   REMARKS
MONTEVIDEO     CLEAR     12  10  92 W9        29.59R WCI   0
GRANITE FALLS  CLEAR     13  10  85 SW14      29.62R WCI  -2
CANBY          CLEAR     14   8  78 SW13      29.61S WCI   0
MARSHALL       CLEAR     13   9  84 W20       29.62R WCI  -5
REDWOOD FALLS  CLEAR     15  12  88 W17       29.59F WCI  -1
OLIVIA         CLEAR     16  12  86 W13       29.58S WCI   2
PIPESTONE      CLEAR      7   3  85 W12       29.64S WCI  -9
WORTHINGTON    CLEAR      9   6  88 SW18      29.67R WCI -10
JACKSON        CLEAR     14  12  92 W16       29.66R WCI  -2
TRACY          CLEAR     16  11  82 W16G22    29.61S WCI   0
SLAYTON        CLEAR     11   8  85 W26       29.63R FOG     WCI  -9
$$
MNZ065>067-074>077-082>085-091>093-251100-
   South Central Minnesota

CITY           SKY/WX    TMP DP  RH WIND       PRES   REMARKS
MANKATO        FAIR      15  12  88 W17       29.63R WCI  -1
NEW ULM        CLEAR     14  10  85 W16G22    29.61S WCI  -2
ST JAMES       CLEAR     14  10  85 SW12      29.64S WCI   0
FAIRMONT       CLEAR     15  12  88 W18       29.67R WCI  -2
GLENCOE        CLOUDY    18  17  98 SW9G17    29.58R WCI   6
FARIBAULT      CLOUDY    18  14  86 SW14      29.61R WCI   4
OWATONNA       CLOUDY    18  16  93 W20       29.62R WCI   1
WASECA         MOCLDY    18  14  86 SW15      29.65R WCI   3
ALBERT LEA       N/A     16  12  86 W8        29.64R WCI   5
$$
MNZ078>079-086>088-094>096-251100-
   Southeast Minnesota

CITY           SKY/WX    TMP DP  RH WIND       PRES   REMARKS
ROCHESTER      LGT SNOW  18  15  88 W25G35    29.59R FOG     WCI   0
RED WING       CLOUDY    21  14  73 W14G20    29.57R WCI   8
STANTON        CLOUDY    19  15  82 W13G23    29.58R WCI   7
DODGE CENTER   CLOUDY    18  16  93 W18G26    29.60R FOG     WCI   2
WINONA         CLOUDY    23  18  80 W9G17     29.60R WCI  13
AUSTIN         CLOUDY    18  16  93 W15G23    29.65R WCI   3
PRESTON        CLOUDY    17  14  87 W17G24    29.62R FOG     WCI   2
$$
ABBREVIATIONS USED IN REMARKS
   TC - TEMPERATURES IN CELSIUS
  WCI - WIND CHILL INDEX
   HX - HEAT INDEX
  VSB - VISIBILITY
$$




USA.gov is the U.S. government's official web portal to all federal, state and local government web resources and services.